User: anonymous   Login
Location: Harwich
(41.7160°N, 69.9939°W)
Time: 17:52:05
(UTC+02:00)
Language:

Oscar 11 - Orbit

View from above orbital plane
View from above orbital plane
View from above satellite
View from above satellite

Ground track
Ground track

The orbit data is extracted from the following two-line orbital elements,

1 14781U 84021B   24260.47057498  .00004792  00000-0  53530-3 0  9995
2 14781  97.7150 227.0821 0009537 127.5940 232.6144 14.87388711183053
Epoch (UTC): 16 September 2024 11:17:37
Eccentricity: 0.0009537
inclination: 97.7150°
perigee height: 599 km
apogee height: 613 km
right ascension of ascending node: 227.0821°
argument of perigee: 127.5940°
revolutions per day: 14.87388711
mean anomaly at epoch: 232.6144°
orbit number at epoch: 18305

The dashed part of the orbit path shows where the satellite is in the earth's shadow,  

DLR